www.pogodaiklimat.ru

Погода и климат >> Архив погоды >> Индия >> Махараштра >> Пуна


ПОГОДА в Пуне

  • Прогноз погоды в Пуне
  • Монитор погоды в Пуне

АРХИВ ПОГОДЫ в Пуне

Время (UTC), дата Ветер
(напр.,м/с)
 
Видим.   Явления Облачность Т
(С)
Тd
(С)
f
(%)
Тe
(С)
Тes
(С)
Комфортность P
(гПа)
Po
(гПа)
Тmin
(С)
Tmax
(С)
R
(мм)
R24
(мм)
S
(см)
06 13.08 З 2 10 км {дождь, морось} 9/9 660 м
[Frnb]
+27.0 +21.8 73 +35 +37 очень
душно
1005.7 944.5 0.0
09 13.08 З 1 10 км в посл. час морось 9/4 660 м
[Frnb Ac trans Ci fib]
+26.6 +23.2 82 +36 +43 очень
душно
1004.7 943.6 0.0
12 13.08 З 2 10 км {дождь, морось} 10/9 660 м
[Frnb Ac trans]
+25.0 +22.1 84 +32 +32 очень
душно
1004.7 943.1 +28.1 0.6
15 13.08 З 1 4000 м 8/6 660 м
[Frnb Ac trans]
+24.2 +21.3 84 +31 +31 очень
душно
1005.8 944.1 0.6
18 13.08 штиль 0 4000 м 5/4 800 м
[Sc Ci fib]
+23.8 +21.5 87 +30 +30 очень
душно
1007.1 945.1 0.6
21 13.08 штиль 0 4000 м 6/6 660 м
[Frnb Ac trans]
+23.2 +21.7 91 +31 +31 очень
душно
1005.5 943.6 0.6
00 14.08 З 1 4000 м 9/9 660 м
[Frnb]
+23.0 +21.8 93 +31 +31 очень
душно
1005.4 943.3 0.6
03 14.08 З 1 10 км 9/8 660 м
[Frnb Ac trans]
+24.2 +22.2 89 +31 +33 очень
душно
1006.6 944.9 +22.3 0.6
06 14.08 З 2 10 км слаб. морось 10/9 660 м
[Frnb Ac trans]
+24.6 +22.6 89 +32 +33 очень
душно
1006.7 945.0 0.0
09 14.08 З 2 10 км 8/5 660 м
[Frnb Ac trans]
+27.4 +21.9 72 +35 +41 очень
душно
1004.5 943.5 0.0
12 14.08 З 1 10 км в посл. час дождь 8/5 660 м
[Frnb Ac trans]
+25.6 +22.1 81 +33 +34 очень
душно
1004.8 943.4 +28.5 0.1
15 14.08 З 1 4000 м 8/4 800 м
[Sc Ac trans]
+24.4 +21.1 82 +31 +31 очень
душно
1006.5 945.2 0.1
18 14.08 З 1 4000 м 6/1 800 м
[Sc Ac trans]
+23.6 +21.8 90 +30 +30 очень
душно
1007.6 945.7 0.1
21 14.08 З 1 4000 м 8/4 800 м
[Sc Ac trans]
+23.0 +21.8 93 +31 +31 очень
душно
1006.6 944.5 0.1
00 15.08 З 1 4000 м 8/3 800 м
[Sc Ac trans]
+23.0 +21.5 91 +31 +31 очень
душно
1006.4 944.3 0.1
03 15.08 штиль 0 4000 м слаб. морось 10/9 660 м
[Frnb Ac trans]
+23.4 +21.9 91 +32 +32 очень
душно
1007.7 945.7 +22.5 0.2
06 15.08 З 1 10 км {морось} 10/8 660 м
[Frnb Ac trans]
+26.2 +22.5 80 +34 +36 очень
душно
1007.0 945.7 0.0
09 15.08 З 2 10 км 9/8 660 м
[Frnb Ac trans]
+27.4 +22.1 73 +36 +38 очень
душно
1005.1 944.1 0.0
12 15.08 З 1 4000 м слаб. дождь {морось} 9/8 660 м
[Frnb Ac trans]
+25.0 +22.4 86 +33 +33 очень
душно
1005.6 943.9 +28.1 0.3
15 15.08 З 1 4000 м слаб. морось {дождь} 10/8 660 м
[Frnb Ac trans]
+23.8 +21.5 87 +30 +30 очень
душно
1007.2 945.2 0.4
18 15.08 З 1 4000 м слаб. морось {дождь} 10/8 660 м
[Frnb Ac trans]
+23.4 +21.3 88 +31 +31 очень
душно
1007.7 945.7 0.4
21 15.08 штиль 0 4000 м 8/5 660 м
[Frnb Ac trans]
+23.2 +21.4 90 +31 +31 очень
душно
1006.6 944.7 0.4
00 16.08 З 1 4000 м слаб. морось 9/6 660 м
[Frnb Ac trans]
+22.8 +21.6 93 +30 +30 очень
душно
1006.2 944.1 0.8
03 16.08 З 1 10 км {морось} 6/5 660 м
[Frnb Ac trans]
+24.4 +21.8 85 +31 +35 очень
душно
1007.1 945.3 +22.0 1
06 16.08 З 1 10 км {морось} 9/9 660 м
[Frnb]
+25.9 +22.9 84 +35 +37 очень
душно
1007.1 945.5 0.0
09 16.08 З 1 10 км {дождь, морось} 8/8 660 м
[Frnb]
+26.0 +23.4 86 +35 +39 очень
душно
1005.5 944.1 1
12 16.08 З 1 10 км {дождь, морось} 8/6 660 м
[Frnb Ac trans]
+26.0 +22.3 80 +34 +35 очень
душно
1004.7 943.3 +27.9 4
15 16.08 З 1 4000 м {дождь, морось} 8/6 660 м
[Frnb Ac trans]
+23.4 +21.6 90 +32 +32 очень
душно
1006.5 944.6 4
18 16.08 штиль 0 4000 м {дождь, морось} 5/5 660 м
[Frnb]
+22.8 +21.6 93 +30 +30 очень
душно
1007.5 945.3 4
21 16.08 штиль 0 4000 м {морось} 5/5 660 м
[Frnb]
+22.8 +21.0 90 +30 +30 очень
душно
1006.3 944.2 4
00 17.08 штиль 0 4000 м {морось} 4/4 660 м
[Frnb]
+22.2 +21.3 95 +29 +29 очень
душно
1005.7 943.6 4
03 17.08 З 1 10 км 6/5 660 м
[Frnb Ac trans]
+24.6 +22.0 85 +32 +35 очень
душно
1006.5 944.8 +21.6 4
06 17.08 З 3 10 км {дождь, морось} 8/8 660 м
[Frnb]
+27.4 +21.0 68 +34 +38 очень
душно
1006.5 945.4 0.2
09 17.08 З 2 10 км 6/4 800 м
[Cu Sc Ac trans]
+27.0 +23.0 79 +36 +45 очень
душно
1005.6 944.4 0.2
12 17.08 З 2 10 км 6/5 800 м
[Cu Sc Ac trans]
+27.6 +23.4 78 +37 +39 очень
душно
1004.6 943.7 +28.6 0.2
15 17.08 З 1 4000 м 4/4 800 м
[Sc]
+24.4 +21.8 85 +31 +31 очень
душно
1006.5 944.8 0.2
18 17.08 штиль 0 4000 м 5/3 800 м
[Sc Ac trans Ci fib]
+23.2 +21.4 90 +31 +31 очень
душно
1008.3 946.3 0.2
21 17.08 штиль 0 4000 м 4/1 800 м
[Sc Ac trans Ci fib]
+22.0 +21.1 95 +28 +28 душно 1007.6 945.2 0.2
00 18.08 З 1 4000 м 8/3 800 м
[Sc Ac trans Ci fib]
+22.6 +21.1 91 +30 +30 очень
душно
1007.3 945.1 0.2
03 18.08 З 1 10 км 6/3 800 м
[Sc Ac trans Ci fib]
+24.6 +22.0 85 +32 +35 очень
душно
1008.1 946.3 +21.1 0.2
06 18.08 З 1 10 км слаб. морось 9/8 660 м
[Frnb Ac trans]
+24.8 +23.4 92 +33 +37 очень
душно
1009.0 947.1 0.0
09 18.08 З 1 10 км 8/6 660 м
[Frnb Ac trans]
+28.0 +24.1 79 +39 +45 очень
душно
1006.4 945.3 0.0
12 18.08 З 1 10 км {морось} 8/6 660 м
[Frnb Ac trans]
+26.2 +23.1 83 +35 +36 очень
душно
1006.1 944.9 +28.4 0.0
15 18.08 штиль 0 4000 м 5/3 800 м
[Sc Ac trans Ci fib]
+24.0 +22.6 92 +31 +31 очень
душно
1008.5 946.5 0.0
18 18.08 штиль 0 4000 м 5/3 800 м
[Sc Ci fib]
+23.0 +22.1 95 +31 +31 очень
душно
1010.1 947.8 0.0
21 18.08 штиль 0 4000 м 5/3 800 м
[Sc Ac trans]
+22.2 +21.6 96 +29 +29 очень
душно
1008.5 946.3 0.0
00 19.08 штиль 0 4000 м 9/5 800 м
[Sc Ac trans]
+21.4 +21.1 98 +27 +27 душно 1008.0 945.7 0.0
03 19.08 З 1 10 км 6/3 800 м
[Sc Ac trans]
+24.8 +22.5 87 +32 +36 очень
душно
1009.4 947.5 +20.8 0.0
06 19.08 З 1 10 км 9/5 660 м
[Frnb Ac trans Ci fib]
+27.6 +23.9 80 +38 +45 очень
душно
1009.8 948.5
09 19.08 З 2 10 км 6/5 800 м
[Sc Ac trans]
+30.0 +24.4 72 +42 +50 опасность
перегрева
1007.0 946.3
12 19.08 З 2 10 км 8/5 800 м
[Sc Ci fib]
+27.4 +22.2 73 +36 +37 очень
душно
1006.5 945.4 +30.6
15 19.08 З 1 4000 м 6/3 800 м
[Sc Ac trans Ci fib]
+24.8 +21.6 82 +32 +32 очень
душно
1008.8 947.0
18 19.08 З 1 4000 м 6/4 800 м
[Sc Ac trans Ci fib]
+23.4 +20.7 85 +31 +31 очень
душно
1010.2 948.1
21 19.08 штиль 0 4000 м 5/4 800 м
[Sc Ac trans]
+22.8 +21.0 90 +30 +30 очень
душно
1009.0 946.8
00 20.08 З 1 4000 м в посл. час морось 8/6 800 м
[Sc Ac trans]
+22.6 +21.1 91 +30 +30 очень
душно
1008.8 946.6 0.0
03 20.08 штиль 0 10 км 8/6 800 м
[Sc Ac trans]
+24.2 +21.7 86 +31 +33 очень
душно
1010.3 948.4 +21.9 0.0

 

Местоположение метеостанции Пуна (Махараштра, Индия): широта 18.53 долгота 73.85 высота над уровнем моря 559 м.

В архиве по умолчанию представлена погода в Пуне за последнюю неделю. Архивные данные за месяц целиком и за предыдущие месяцы, начиная с января 2011 года, Вы можете получить, выбрав интересующий диапазон дат из раскрывающегося списка и нажав кнопку "Ввод!".


*Определитесь, кто Вы:
робот инопланетянин человек

Внимание! Время в таблицах - всемирное. Для получения местного времени необходимо прибавить поправку, которая равна 5.5 ч.

Смотрите также архив погоды в соседних городах и на ближайших метеорологических станциях:

Погода в Байре (Махараштра, Индия) (48 км)
Погода в Махабалешваре (Махараштра, Индия) (69 км)
Погода в Матеране (Махараштра, Индия) (78 км)
Погода в Алибаге (Махараштра, Индия) (104 км)
Погода в Харнае (Махараштра, Индия) (112 км)
Погода в Сатаре (Махараштра, Индия) (114 км)
Погода в Мумбай Колаба (Махараштра, Индия) (116 км)
Погода в Ахмеднагаре (Махараштра, Индия) (117 км)
Погода в Мумбаи (Махараштра, Индия) (124 км)
Погода в Джере (Махараштра, Индия) (141 км)

Пояснения к столбцам:

Ветер - указаны скорость ветра в м/с - средняя за 10 мин, порывы в срок и между сроками (в фигурных скобках) и направление, откуда дует ветер: С - северный, СВ - северо-восточный, В - восточный, ЮВ - юго-восточный, Ю - южный, ЮЗ - юго-западный, З - западный, СЗ - северо-западный.
Видимость - горизонтальная дальность видимости в метрах или километрах. При видимости от 1 до 10 км при отсутствии осадков обычно наблюдается дымка, при ухудшении видимости до 1 км и менее - туман. В сухую погоду видимость может ухудшаться дымом, пылью или мглою.
Явления - указаны атмосферные явления, наблюдавшиеся в срок или в последний час перед сроком; фигурными скобками обозначены явления, наблюдавшиеся между сроками (за 1-3 часа до срока); квадратными скобками обозначены град или гололедные отложения с указанием их диаметра в мм.
Облачность - указаны через наклонную черту общая и нижняя облачность в баллах и высота нижней границы облаков в метрах; квадратными скобками обозначены формы облаков: Ci - перистые, Cs - перисто-слоистые, Cc - перисто-кучевые, Ac - высококучевые, As - высокослоистые, Sc - слоисто-кучевые, Ns - слоисто-дождевые, Cu - кучевые, Cb - кучево-дождевые. Подробнее классификацию облаков см. в Атласе облаков (PDF).
T - Температура воздуха - температура, измеренная на высоте 2 м над землей.
Td - Температура точки росы - температура, при понижении до которой содержащийся в воздухе водяной пар достигнет насыщения.
f - Относительная влажность воздуха - влажноcть воздуха, измеренная на высоте 2 м над землей.
Te - Эффективная температура - температура, которую ощущает одетый по сезону человек в тени. Характеристика душности погоды. При расчете учитывается влияние влажности воздуха и скорости ветра на теплоощущения человека.
Tes - Эффективная температура на солнце - температура, которую ощущает человек, с поправкой на солнечный нагрев. Характеристика знойности погоды. Зависит от высоты солнца над горизонтом, облачности и скорости ветра. Ночью, в пасмурную погоду, а также при ветре 12 м/с и более поправка равна нулю.
P - Атмосферное давление - приведенное к уровню моря атмосферное давление.
Po - Атмосферное давление - измеренное на уровне метеостанции атмосферное давление.
Tmin - Минимальная температура - минимум температуры воздуха на высоте 2 м над землей.
Tmax - Максимальная температура - максимум температуры воздуха на высоте 2 м над землей.
R - Количество осадков - Количество выпавших осадков за период времени, мм. При наведении курсора мыши на число - период времени, за который выпало указанное количество осадков.
R24 - Количество осадков - Количество выпавших осадков за 24 часа, мм.
S - Снежный покров - Высота снежного покрова, см. При наведении курсора мыши на число - состояние снежного покрова и степень покрытия местности в баллах.